User: anonymous   Login
Location: Caltech
(34.1382°N, 118.1253°W)
Time: 07:21:47
(UTC-07:00)
Language:

Aureole 3 Rocket - Orbit

View from above orbital plane
View from above orbital plane
View from above satellite
View from above satellite

Ground track
Ground track

The orbit data is extracted from the following two-line orbital elements,

1 12849U 81094B   17084.89164658 +.00000282 +00000-0 +25870-4 0  9991
2 12849 082.4929 230.6512 0902261 279.0158 071.0054 13.50072867730704
Epoch (UTC): 25 March 2017 21:23:58
Eccentricity: 0.0902261
inclination: 82.4929°
perigee height: 400 km
apogee height: 1744 km
right ascension of ascending node: 230.6512°
argument of perigee: 279.0158°
revolutions per day: 13.50072867
mean anomaly at epoch: 71.0054°
orbit number at epoch: 73070

The dashed part of the orbit path shows where the satellite is in the earth's shadow,  

DLR